Simultaneous Nadir Overpasses (SNOs) Predictions

Prediction of SNOs between AQUA and GOES-15 Satellite Orbit:

Table of predicted SNOs for the next 14.0 days since TLE Epoch: 3/29/2019
Index Date Time (AQUA) AQUA Lat,Lon GOES-15 Lat,Lon Distance(km) Time Diff (sec)
1 03/31/2019 09:55:26 -0.60,-124.96 0.05,-128.13 359.23 80
2 03/31/2019 22:16:49 -0.49,-130.15 -0.05,-128.10 234.07 80
3 04/02/2019 22:04:38 0.10,-127.19 -0.05,-128.05 96.40 80
4 04/03/2019 10:25:55 0.97,-132.36 0.05,-128.05 490.11 80
5 04/04/2019 21:52:29 0.76,-124.25 -0.05,-127.99 426.39 80
6 04/05/2019 10:13:44 0.37,-129.40 0.05,-128.00 160.19 80
7 04/07/2019 10:01:34 -0.29,-126.45 0.05,-127.94 169.27 80
8 04/07/2019 22:22:57 -0.85,-131.63 -0.05,-127.90 424.23 80
9 04/09/2019 09:49:23 -0.90,-123.49 0.05,-127.87 497.96 80
10 04/09/2019 22:10:46 -0.24,-128.68 -0.05,-127.84 95.76 80
11 04/11/2019 21:58:35 0.37,-125.72 -0.06,-127.76 231.96 80
12 04/12/2019 10:19:52 0.70,-130.88 0.06,-127.75 355.52 80




NCC Satellite Simultaneous Nadir Overpasses (SNOs) Prediction Service
